N3KJE Weather Reports


time (UTC)temp
F
wind
direction
speed
knots
gust
knots
rain 1hr
in
rain 24hr
in
rain mn
in
humidity
%
barometer
mb
20260507010504 69 286 0.9 0.9 0.00 0.00 0.00 80 1008.8
20260507005005 70 286 0.0 0.9 0.00 0.00 0.00 78 1008.5
20260507004504 70 286 0.9 0.9 0.00 0.00 0.00 78 1008.4
20260507003004 70 265 0.9 2.6 0.00 0.00 0.00 78 1008.5
20260507002504 70 188 0.0 2.6 0.00 0.00 0.00 78 1008.2
20260507001505 70 110 0.0 0.9 0.00 0.00 0.00 78 1008.1
20260507001005 70 110 0.0 0.9 0.00 0.00 0.00 77 1008.2
20260506235505 71 110 0.0 1.7 0.00 0.00 0.00 75 1008.1
20260506235005 71 107 0.0 0.9 0.00 0.00 0.00 74 1008.0
20260506234504 72 149 0.9 1.7 0.00 0.00 0.00 74 1008.0
20260506234004 72 173 0.9 2.6 0.00 0.00 0.00 74 1008.0
20260506232505 72 286 0.9 2.6 0.00 0.00 0.00 73 1007.9
20260506231504 73 245 1.7 4.3 0.00 0.00 0.00 73 1008.0
20260506230005 73 170 0.9 4.3 0.00 0.00 0.00 72 1008.0
20260506224504 73 129 0.9 4.3 0.00 0.00 0.00 72 1007.9
20260506223505 73 220 2.6 6.1 0.00 0.00 0.00 72 1007.9
20260506221504 73 272 1.7 7.0 0.00 0.00 0.00 71 1007.9
20260506221004 73 309 0.9 4.3 0.00 0.00 0.00 72 1007.9
20260506220505 73 221 1.7 5.2 0.00 0.00 0.00 72 1007.8
20260506215505 73 226 1.7 7.0 0.00 0.00 0.00 72 1007.8
20260506215005 73 140 2.6 8.7 0.00 0.00 0.00 72 1007.7
20260506214505 73 196 3.5 13.0 0.00 0.00 0.00 72 1007.8
20260506213504 73 207 3.5 7.8 0.00 0.00 0.00 73 1007.9
20260506211505 73 265 2.6 7.0 0.00 0.00 0.00 73 1007.6
20260506211005 73 183 2.6 8.7 0.00 0.00 0.00 73 1007.5
20260506210004 72 138 2.6 13.9 0.00 0.00 0.00 73 1007.6
20260506203505 73 189 2.6 8.7 0.00 0.00 0.00 72 1007.6
20260506203005 73 246 3.5 8.7 0.00 0.00 0.00 71 1007.5
20260506202504 73 211 2.6 10.4 0.00 0.00 0.00 71 1007.6
20260506201504 73 190 3.5 11.3 0.00 0.00 0.00 71 1007.8
20260506195505 74 248 4.3 8.7 0.00 0.00 0.00 71 1008.2
20260506194505 73 242 3.5 10.4 0.00 0.00 0.00 71 1007.7
20260506194005 73 204 3.5 10.4 0.00 0.00 0.00 70 1007.7
20260506193505 74 195 2.6 10.4 0.00 0.00 0.00 70 1007.8
20260506192004 73 228 4.3 11.3 0.00 0.00 0.00 71 1008.3
20260506190505 73 165 4.3 10.4 0.00 0.00 0.00 71 1008.6
20260506190005 73 148 2.6 10.4 0.00 0.00 0.00 72 1008.7
20260506185504 73 201 4.3 11.3 0.00 0.00 0.00 72 1008.6
20260506184504 72 165 2.6 11.3 0.00 0.00 0.00 73 1008.8
20260506184004 72 190 1.7 7.0 0.00 0.00 0.00 73 1008.9
20260506183504 72 222 3.5 8.7 0.00 0.00 0.00 74 1008.9
20260506181504 71 181 2.6 10.4 0.00 0.00 0.00 76 1009.1
20260506180504 71 146 4.3 10.4 0.00 0.00 0.00 76 1009.4
20260506180005 71 224 3.5 7.8 0.00 0.00 0.00 77 1009.3
20260506175004 70 209 2.6 8.7 0.00 0.00 0.00 77 1009.1
20260506165504 70 171 5.2 10.4 0.00 0.00 0.00 73 1010.2
20260506164504 70 206 3.5 7.8 0.00 0.00 0.00 73 1010.3
20260506164004 71 209 3.5 14.8 0.00 0.00 0.00 73 1010.6
20260506163505 72 187 5.2 12.2 0.00 0.00 0.00 69 1010.5
20260506162505 74 164 2.6 13.0 0.00 0.00 0.00 64 1010.5
20260506161005 76 157 4.3 13.0 0.00 0.00 0.00 61 1010.4
20260506160504 76 181 4.3 10.4 0.00 0.00 0.00 61 1010.4
20260506154504 75 212 4.3 12.2 0.00 0.00 0.00 63 1010.6
20260506152505 75 214 2.6 7.0 0.00 0.00 0.00 63 1010.8
20260506152005 75 213 2.6 8.7 0.00 0.00 0.00 63 1010.7
20260506151504 74 268 2.6 6.1 0.00 0.00 0.00 64 1010.7
20260506151004 74 138 2.6 7.8 0.00 0.00 0.00 63 1010.8
20260506150504 74 91 2.6 7.0 0.00 0.00 0.00 64 1010.7
20260506145504 74 67 1.7 11.3 0.00 0.00 0.00 63 1010.8
20260506143504 75 161 4.3 11.3 0.00 0.00 0.00 62 1010.8
20260506141504 75 306 3.5 8.7 0.00 0.00 0.00 62 1010.9
20260506141004 75 174 4.3 12.2 0.00 0.00 0.00 62 1010.9
20260506140504 75 190 3.5 11.3 0.00 0.00 0.00 63 1010.7
20260506140005 74 145 3.5 10.4 0.00 0.00 0.00 63 1010.7
20260506135504 73 104 4.3 8.7 0.00 0.00 0.00 64 1010.8
20260506132005 71 136 2.6 10.4 0.00 0.00 0.00 69 1011.1
20260506131504 71 182 3.5 7.0 0.00 0.00 0.00 69 1011.1
20260506131004 71 193 2.6 7.8 0.00 0.00 0.00 70 1011.1
20260506130504 71 216 3.5 11.3 0.00 0.00 0.00 71 1011.2
20260506124004 68 171 1.7 7.0 0.00 0.00 0.00 75 1011.5
20260506123504 68 218 1.7 6.1 0.00 0.00 0.00 75 1011.5
20260506122004 69 196 2.6 7.0 0.00 0.00 0.00 73 1011.3
20260506120005 67 113 2.6 6.1 0.00 0.00 0.00 77 1011.3
20260506115505 66 126 1.7 8.7 0.00 0.00 0.00 78 1011.3
20260506115004 65 161 2.6 6.1 0.00 0.00 0.00 78 1011.3
20260506114504 65 155 1.7 7.0 0.00 0.00 0.00 78 1011.4
20260506114004 66 163 1.7 6.1 0.00 0.00 0.00 78 1011.3
20260506112504 66 161 1.7 5.2 0.00 0.00 0.00 77 1011.2
20260506111504 66 175 2.6 8.7 0.00 0.00 0.00 78 1011.3
20260506111004 65 138 1.7 6.1 0.00 0.00 0.00 79 1011.3
20260506110504 65 124 1.7 6.1 0.00 0.00 0.00 80 1011.3
20260506110004 64 150 1.7 5.2 0.00 0.00 0.00 80 1011.3
20260506104004 63 162 1.7 6.1 0.00 0.00 0.00 82 1011.5
20260506103005 63 112 1.7 5.2 0.00 0.00 0.00 82 1011.6
20260506102504 63 211 2.6 7.0 0.00 0.00 0.00 82 1011.5
20260506102004 63 142 1.7 6.1 0.00 0.00 0.00 82 1011.6
20260506101004 63 124 0.9 2.6 0.00 0.00 0.00 83 1011.3
20260506100504 63 183 1.7 7.0 0.00 0.00 0.00 83 1011.3
20260506094504 63 154 0.9 2.6 0.00 0.00 0.00 82 1011.4
20260506093004 63 141 0.9 4.3 0.00 0.00 0.00 83 1011.3
20260506092504 63 186 2.6 7.8 0.00 0.00 0.00 83 1011.3
20260506091504 63 126 0.9 2.6 0.00 0.00 0.00 82 1011.2
20260506091004 63 163 1.7 4.3 0.00 0.00 0.00 82 1011.3
20260506090505 63 156 0.9 4.3 0.00 0.00 0.00 82 1011.3
20260506090004 63 143 2.6 7.0 0.00 0.00 0.00 82 1011.2
20260506085504 63 170 1.7 4.3 0.00 0.00 0.00 81 1011.4
20260506085004 64 121 1.7 5.2 0.00 0.00 0.00 81 1011.5
20260506083004 64 196 1.7 4.3 0.00 0.00 0.00 81 1011.5
20260506082504 63 173 2.6 5.2 0.00 0.00 0.00 81 1011.5
20260506082004 63 186 1.7 7.8 0.00 0.00 0.00 81 1011.6
20260506081005 63 210 2.6 5.2 0.00 0.00 0.00 82 1011.6
20260506080505 63 161 1.7 4.3 0.00 0.00 0.00 82 1011.6
20260506062505 65 108 0.9 2.6 0.00 0.00 0.00 80 1011.7
20260506051004 66 144 2.6 7.0 0.00 0.00 0.00 77 1012.0
20260506050505 66 185 2.6 6.1 0.00 0.00 0.00 77 1012.1
20260506045005 67 194 2.6 6.1 0.00 0.00 0.00 76 1012.2
20260506044504 67 147 2.6 10.4 0.00 0.00 0.00 76 1012.1
20260506043504 67 94 2.6 6.1 0.00 0.00 0.00 76 1012.2
20260506041504 67 155 4.3 11.3 0.00 0.02 0.00 76 1012.1
20260506041005 67 145 1.7 4.3 0.00 0.02 0.00 76 1012.1
20260506040505 67 153 3.5 8.7 0.00 0.04 0.00 76 1012.1
20260506040005 67 156 2.6 12.2 0.00 0.04 0.00 75 1012.1
20260506034504 67 175 2.6 7.0 0.00 0.04 0.04 75 1012.1
20260506032504 68 154 4.3 12.2 0.00 0.04 0.04 74 1012.1
20260506031004 68 163 2.6 8.7 0.00 0.04 0.04 74 1012.1
20260506030504 68 156 2.6 7.0 0.00 0.04 0.04 74 1012.1
20260506030004 68 195 1.7 7.0 0.00 0.04 0.04 74 1012.1
20260506025505 68 170 3.5 10.4 0.00 0.04 0.04 74 1012.1
20260506024504 68 198 1.7 7.8 0.00 0.04 0.04 74 1012.1
20260506024004 68 136 1.7 6.1 0.00 0.04 0.04 73 1012.2
20260506023005 68 179 1.7 10.4 0.00 0.04 0.04 73 1012.2
20260506022504 69 131 2.6 7.8 0.00 0.04 0.04 72 1012.1
20260506022004 69 170 2.6 8.7 0.00 0.04 0.04 72 1012.1
20260506021004 69 149 3.5 11.3 0.00 0.04 0.04 72 1012.1
20260506020504 69 127 3.5 7.8 0.00 0.04 0.04 72 1012.2
20260506014004 69 147 3.5 7.8 0.00 0.04 0.04 71 1012.0
20260506013504 69 153 2.6 10.4 0.00 0.04 0.04 71 1011.9
20260506012505 69 162 2.6 8.7 0.00 0.04 0.04 71 1011.8
20260506012004 69 139 4.3 10.4 0.00 0.04 0.04 71 1011.8
20260506011004 69 97 1.7 7.8 0.00 0.04 0.04 72 1011.7